07-08-2022, 00:00:00,    335,    0.0,   12.7,   0.00,   0.00, 1023.7,   56.2, -999.0
07-08-2022, 00:00:11,    335,    0.0,   12.7,   0.00,   0.00, 1023.7,   56.2, -999.0
07-08-2022, 00:00:20,    335,    0.0,   12.8,   0.00,   0.00, 1023.7,   56.3, -999.0
07-08-2022, 00:00:30,    335,    0.0,   12.8,   0.00,   0.00, 1023.7,   56.3, -999.0
07-08-2022, 00:00:40,    335,    0.0,   12.7,   0.00,   0.00, 1023.7,   56.3, -999.0
07-08-2022, 00:00:50,    335,    0.0,   12.7,   0.00,   0.00, 1023.7,   56.4, -999.0
07-08-2022, 00:01:00,    335,    0.0,   12.7,   0.00,   0.00, 1023.7,   56.2, -999.0
07-08-2022, 00:01:10,    335,    0.0,   12.6,   0.00,   0.00, 1023.7,   56.0, -999.0
07-08-2022, 00:01:20,    335,    0.0,   12.6,   0.00,   0.00, 1023.7,   56.2, -999.0
07-08-2022, 00:01:30,    335,    0.0,   12.7,   0.00,   0.00, 1023.7,   56.2, -999.0
07-08-2022, 00:01:40,    335,    0.0,   12.7,   0.00,   0.00, 1023.7,   56.2, -999.0
07-08-2022, 00:01:50,    335,    0.0,   12.7,   0.00,   0.00, 1023.7,   56.2, -999.0
07-08-2022, 00:01:59,    335,    0.0,   12.7,   0.00,   0.00, 1023.7,   56.2, -999.0
07-08-2022, 00:02:10,    335,    0.0,   12.7,   0.00,   0.00, 1023.7,   56.3, -999.0
07-08-2022, 00:02:20,    335,    0.0,   12.7,   0.00,   0.00, 1023.7,   56.2, -999.0
07-08-2022, 00:02:29,    335,    0.0,   12.8,   0.00,   0.00, 1023.7,   56.2, -999.0
07-08-2022, 00:02:40,    335,    0.0,   12.8,   0.00,   0.00, 1023.7,   56.3, -999.0
07-08-2022, 00:02:50,    335,    0.0,   12.7,   0.00,   0.00, 1023.7,   56.2, -999.0
07-08-2022, 00:02:59,    335,    0.0,   12.6,   0.00,   0.00, 1023.7,   56.2, -999.0
07-08-2022, 00:03:09,    335,    0.0,   12.7,   0.00,   0.00, 1023.7,   56.2, -999.0
07-08-2022, 00:03:19,    335,    0.0,   12.8,   0.00,   0.00, 1023.7,   56.1, -999.0
07-08-2022, 00:03:29,    335,    0.0,   12.8,   0.00,   0.00, 1023.7,   56.1, -999.0
07-08-2022, 00:03:39,    336,    0.0,   12.8,   0.00,   0.00, 1023.7,   56.1, -999.0
07-08-2022, 00:03:49,    335,    0.0,   12.8,   0.00,   0.00, 1023.7,   56.0, -999.0
07-08-2022, 00:03:59,    335,    0.0,   12.8,   0.00,   0.00, 1023.7,   56.1, -999.0
07-08-2022, 00:04:09,    335,    0.0,   12.8,   0.00,   0.00, 1023.7,   56.0, -999.0
07-08-2022, 00:04:19,    335,    0.0,   12.7,   0.00,   0.00, 1023.7,   55.9, -999.0
07-08-2022, 00:04:29,    335,    0.0,   12.9,   0.00,   0.00, 1023.7,   56.0, -999.0
07-08-2022, 00:04:39,    335,    0.0,   12.9,   0.00,   0.00, 1023.7,   56.0, -999.0
07-08-2022, 00:04:49,    335,    0.0,   12.9,   0.00,   0.00, 1023.7,   55.9, -999.0
07-08-2022, 00:04:59,    335,    0.0,   12.9,   0.00,   0.00, 1023.6,   55.8, -999.0
07-08-2022, 00:05:09,    335,    0.0,   12.9,   0.00,   0.00, 1023.7,   55.7, -999.0
07-08-2022, 00:05:19,    335,    0.0,   12.8,   0.00,   0.00, 1023.7,   55.7, -999.0
07-08-2022, 00:05:28,    334,    0.0,   12.7,   0.00,   0.00, 1023.6,   55.8, -999.0
07-08-2022, 00:05:38,    335,    0.0,   12.8,   0.00,   0.00, 1023.7,   55.7, -999.0
07-08-2022, 00:05:49,    335,    0.0,   12.9,   0.00,   0.00, 1023.6,   55.9, -999.0
07-08-2022, 00:05:58,    335,    0.0,   12.9,   0.00,   0.00, 1023.6,   55.7, -999.0
07-08-2022, 00:06:08,    335,    0.0,   12.9,   0.00,   0.00, 1023.6,   55.8, -999.0
07-08-2022, 00:06:18,    335,    0.0,   12.9,   0.00,   0.00, 1023.6,   55.8, -999.0
07-08-2022, 00:06:28,    335,    0.0,   12.9,   0.00,   0.00, 1023.7,   55.8, -999.0
07-08-2022, 00:06:38,    335,    0.0,   12.9,   0.00,   0.00, 1023.6,   55.8, -999.0
07-08-2022, 00:06:48,    335,    0.0,   12.8,   0.00,   0.00, 1023.6,   55.8, -999.0
07-08-2022, 00:06:58,    335,    0.0,   12.9,   0.00,   0.00, 1023.7,   55.8, -999.0
07-08-2022, 00:07:08,    335,    0.0,   12.9,   0.00,   0.00, 1023.7,   55.7, -999.0
07-08-2022, 00:07:18,    335,    0.0,   12.9,   0.00,   0.00, 1023.6,   55.8, -999.0
07-08-2022, 00:07:28,    335,    0.0,   12.8,   0.00,   0.00, 1023.6,   55.8, -999.0
07-08-2022, 00:07:38,    335,    0.0,   12.9,   0.00,   0.00, 1023.7,   55.8, -999.0
07-08-2022, 00:07:48,    335,    0.0,   12.8,   0.00,   0.00, 1023.7,   55.9, -999.0
07-08-2022, 00:07:58,    335,    0.0,   12.8,   0.00,   0.00, 1023.6,   55.8, -999.0
07-08-2022, 00:08:07,    335,    0.0,   12.9,   0.00,   0.00, 1023.7,   55.8, -999.0
07-08-2022, 00:08:18,    335,    0.0,   12.8,   0.00,   0.00, 1023.6,   55.9, -999.0
07-08-2022, 00:08:28,    335,    0.0,   12.9,   0.00,   0.00, 1023.7,   55.9, -999.0
07-08-2022, 00:08:37,    335,    0.0,   12.8,   0.00,   0.00, 1023.6,   55.9, -999.0
07-08-2022, 00:08:48,    335,    0.0,   12.8,   0.00,   0.00, 1023.6,   55.8, -999.0
07-08-2022, 00:08:57,    335,    0.0,   12.8,   0.00,   0.00, 1023.7,   55.9, -999.0
07-08-2022, 00:09:07,    335,    0.0,   12.8,   0.00,   0.00, 1023.6,   55.8, -999.0
07-08-2022, 00:09:17,    335,    0.0,   12.8,   0.00,   0.00, 1023.6,   55.9, -999.0
07-08-2022, 00:09:27,    335,    0.0,   12.8,   0.00,   0.00, 1023.6,   55.9, -999.0
07-08-2022, 00:09:37,    335,    0.0,   12.8,   0.00,   0.00, 1023.6,   55.9, -999.0
07-08-2022, 00:09:47,    334,    0.0,   12.7,   0.00,   0.00, 1023.6,   55.9, -999.0
07-08-2022, 00:09:57,    335,    0.0,   12.7,   0.00,   0.00, 1023.7,   56.0, -999.0
07-08-2022, 00:10:07,    335,    0.0,   12.7,   0.00,   0.00, 1023.7,   56.0, -999.0
07-08-2022, 00:10:17,    335,    0.0,   12.7,   0.00,   0.00, 1023.7,   56.1, -999.0
07-08-2022, 00:10:27,    335,    0.0,   12.6,   0.00,   0.00, 1023.6,   56.0, -999.0
07-08-2022, 00:10:37,    335,    0.0,   12.7,   0.00,   0.00, 1023.6,   56.2, -999.0
07-08-2022, 00:10:47,    335,    0.0,   12.7,   0.00,   0.00, 1023.6,   56.1, -999.0
07-08-2022, 00:10:57,    335,    0.0,   12.7,   0.00,   0.00, 1023.6,   56.1, -999.0
07-08-2022, 00:11:06,    335,    0.0,   12.7,   0.00,   0.00, 1023.6,   56.2, -999.0
07-08-2022, 00:11:17,    335,    0.0,   12.7,   0.00,   0.00, 1023.6,   56.3, -999.0
07-08-2022, 00:11:27,    335,    0.0,   12.7,   0.00,   0.00, 1023.6,   56.2, -999.0
07-08-2022, 00:11:36,    335,    0.0,   12.7,   0.00,   0.00, 1023.6,   56.1, -999.0
07-08-2022, 00:11:46,    336,    0.0,   12.6,   0.00,   0.00, 1023.6,   56.2, -999.0
07-08-2022, 00:11:56,    335,    0.0,   12.7,   0.00,   0.00, 1023.6,   56.2, -999.0
07-08-2022, 00:12:06,    335,    0.0,   12.6,   0.00,   0.00, 1023.6,   56.3, -999.0
07-08-2022, 00:12:16,    335,    0.0,   12.7,   0.00,   0.00, 1023.6,   56.2, -999.0
07-08-2022, 00:12:26,    335,    0.0,   12.7,   0.00,   0.00, 1023.6,   56.3, -999.0
07-08-2022, 00:12:36,    335,    0.0,   12.7,   0.00,   0.00, 1023.6,   56.3, -999.0
07-08-2022, 00:12:46,    335,    0.0,   12.7,   0.00,   0.00, 1023.6,   56.2, -999.0
07-08-2022, 00:12:56,    335,    0.0,   12.7,   0.00,   0.00, 1023.6,   56.3, -999.0
07-08-2022, 00:13:06,    335,    0.0,   12.7,   0.00,   0.00, 1023.6,   56.3, -999.0
07-08-2022, 00:13:16,    335,    0.0,   12.7,   0.00,   0.00, 1023.6,   56.2, -999.0
07-08-2022, 00:13:26,    335,    0.0,   12.7,   0.00,   0.00, 1023.6,   56.4, -999.0
07-08-2022, 00:13:36,    335,    0.0,   12.7,   0.00,   0.00, 1023.6,   56.3, -999.0
07-08-2022, 00:13:46,    335,    0.0,   12.7,   0.00,   0.00, 1023.6,   56.3, -999.0
07-08-2022, 00:13:56,    335,    0.0,   12.7,   0.00,   0.00, 1023.6,   56.4, -999.0
07-08-2022, 00:14:06,    335,    0.0,   12.7,   0.00,   0.00, 1023.6,   56.4, -999.0
07-08-2022, 00:14:15,    335,    0.0,   12.7,   0.00,   0.00, 1023.6,   56.3, -999.0
07-08-2022, 00:14:26,    335,    0.0,   12.7,   0.00,   0.00, 1023.6,   56.3, -999.0
07-08-2022, 00:14:35,    335,    0.0,   12.7,   0.00,   0.00, 1023.6,   56.4, -999.0
07-08-2022, 00:14:45,    335,    0.0,   12.7,   0.00,   0.00, 1023.6,   56.5, -999.0
07-08-2022, 00:14:55,    335,    0.0,   12.6,   0.00,   0.00, 1023.5,   56.5, -999.0
07-08-2022, 00:15:05,    335,    0.0,   12.6,   0.00,   0.00, 1023.6,   56.6, -999.0
07-08-2022, 00:15:15,    335,    0.0,   12.6,   0.00,   0.00, 1023.6,   56.6, -999.0
07-08-2022, 00:15:25,    335,    0.0,   12.6,   0.00,   0.00, 1023.6,   56.7, -999.0
07-08-2022, 00:15:35,    335,    0.0,   12.6,   0.00,   0.00, 1023.6,   56.7, -999.0
07-08-2022, 00:15:45,    335,    0.0,   12.6,   0.00,   0.00, 1023.6,   56.7, -999.0
07-08-2022, 00:15:55,    335,    0.0,   12.6,   0.00,   0.00, 1023.6,   56.6, -999.0
07-08-2022, 00:16:05,    335,    0.0,   12.7,   0.00,   0.00, 1023.6,   56.6, -999.0
07-08-2022, 00:16:15,    335,    0.0,   12.7,   0.00,   0.00, 1023.6,   56.6, -999.0
07-08-2022, 00:16:25,    335,    0.0,   12.7,   0.00,   0.00, 1023.6,   56.6, -999.0
07-08-2022, 00:16:35,    335,    0.0,   12.7,   0.00,   0.00, 1023.5,   56.6, -999.0
07-08-2022, 00:16:44,    335,    0.0,   12.7,   0.00,   0.00, 1023.5,   56.6, -999.0
07-08-2022, 00:16:55,    335,    0.0,   12.6,   0.00,   0.00, 1023.6,   56.7, -999.0
07-08-2022, 00:17:05,    335,    0.0,   12.7,   0.00,   0.00, 1023.5,   56.8, -999.0
07-08-2022, 00:17:14,    335,    0.0,   12.7,   0.00,   0.00, 1023.6,   56.6, -999.0
07-08-2022, 00:17:24,    335,    0.0,   12.7,   0.00,   0.00, 1023.6,   56.7, -999.0
07-08-2022, 00:17:35,    335,    0.0,   12.7,   0.00,   0.00, 1023.6,   56.7, -999.0
07-08-2022, 00:17:44,    336,    0.0,   12.7,   0.00,   0.00, 1023.5,   56.7, -999.0
07-08-2022, 00:17:54,    335,    0.0,   12.6,   0.00,   0.00, 1023.6,   56.6, -999.0
07-08-2022, 00:18:04,    335,    0.0,   12.8,   0.00,   0.00, 1023.6,   56.8, -999.0
07-08-2022, 00:18:14,    335,    0.0,   12.8,   0.00,   0.00, 1023.5,   56.7, -999.0
07-08-2022, 00:18:24,    335,    0.0,   12.7,   0.00,   0.00, 1023.6,   56.6, -999.0
07-08-2022, 00:18:34,    335,    0.0,   12.7,   0.00,   0.00, 1023.5,   56.6, -999.0
07-08-2022, 00:18:44,    335,    0.0,   12.7,   0.00,   0.00, 1023.5,   56.6, -999.0
07-08-2022, 00:18:54,    335,    0.0,   12.7,   0.00,   0.00, 1023.6,   56.8, -999.0
07-08-2022, 00:19:04,    335,    0.0,   12.7,   0.00,   0.00, 1023.6,   56.6, -999.0
07-08-2022, 00:19:14,    335,    0.0,   12.7,   0.00,   0.00, 1023.6,   56.8, -999.0
07-08-2022, 00:19:24,    335,    0.0,   12.7,   0.00,   0.00, 1023.5,   56.7, -999.0
07-08-2022, 00:19:34,    336,    0.0,   12.7,   0.00,   0.00, 1023.6,   56.6, -999.0
07-08-2022, 00:19:44,    335,    0.0,   12.8,   0.00,   0.00, 1023.6,   56.8, -999.0
07-08-2022, 00:19:54,    335,    0.0,   12.7,   0.00,   0.00, 1023.6,   56.9, -999.0
07-08-2022, 00:20:04,    335,    0.0,   12.6,   0.00,   0.00, 1023.6,   56.9, -999.0
07-08-2022, 00:20:13,    335,    0.0,   12.6,   0.00,   0.00, 1023.6,   56.9, -999.0
07-08-2022, 00:20:23,    335,    0.0,   12.6,   0.00,   0.00, 1023.6,   57.0, -999.0
07-08-2022, 00:20:34,    335,    0.0,   12.6,   0.00,   0.00, 1023.6,   57.0, -999.0
07-08-2022, 00:20:43,    335,    0.0,   12.5,   0.00,   0.00, 1023.6,   57.1, -999.0
07-08-2022, 00:20:53,    335,    0.0,   12.5,   0.00,   0.00, 1023.6,   57.0, -999.0
07-08-2022, 00:21:03,    335,    0.0,   12.5,   0.00,   0.00, 1023.6,   57.2, -999.0
07-08-2022, 00:21:13,    335,    0.0,   12.5,   0.00,   0.00, 1023.6,   57.1, -999.0
07-08-2022, 00:21:23,    335,    0.0,   12.5,   0.00,   0.00, 1023.5,   57.3, -999.0
07-08-2022, 00:21:33,    335,    0.0,   12.5,   0.00,   0.00, 1023.5,   57.3, -999.0
07-08-2022, 00:21:43,    335,    0.0,   12.5,   0.00,   0.00, 1023.5,   57.3, -999.0
07-08-2022, 00:21:53,    335,    0.0,   12.5,   0.00,   0.00, 1023.5,   57.4, -999.0
07-08-2022, 00:22:03,    335,    0.0,   12.5,   0.00,   0.00, 1023.6,   57.4, -999.0
07-08-2022, 00:22:13,    335,    0.0,   12.5,   0.00,   0.00, 1023.6,   57.3, -999.0
07-08-2022, 00:22:23,    335,    0.0,   12.5,   0.00,   0.00, 1023.5,   57.4, -999.0
07-08-2022, 00:22:33,    335,    0.0,   12.4,   0.00,   0.00, 1023.5,   57.4, -999.0
07-08-2022, 00:22:43,    335,    0.0,   12.5,   0.00,   0.00, 1023.5,   57.5, -999.0
07-08-2022, 00:22:52,    335,    0.0,   12.5,   0.00,   0.00, 1023.5,   57.6, -999.0
07-08-2022, 00:23:03,    335,    0.0,   12.5,   0.00,   0.00, 1023.5,   57.6, -999.0
07-08-2022, 00:23:13,    335,    0.0,   12.5,   0.00,   0.00, 1023.5,   57.5, -999.0
07-08-2022, 00:23:22,    335,    0.0,   12.4,   0.00,   0.00, 1023.6,   57.5, -999.0
07-08-2022, 00:23:32,    335,    0.0,   12.5,   0.00,   0.00, 1023.5,   57.4, -999.0
07-08-2022, 00:23:42,    335,    0.0,   12.4,   0.00,   0.00, 1023.6,   57.5, -999.0
07-08-2022, 00:23:52,    335,    0.0,   12.4,   0.00,   0.00, 1023.6,   57.5, -999.0
07-08-2022, 00:24:02,    335,    0.0,   12.4,   0.00,   0.00, 1023.6,   57.7, -999.0
07-08-2022, 00:24:12,    335,    0.0,   12.4,   0.00,   0.00, 1023.6,   57.9, -999.0
07-08-2022, 00:24:22,    335,    0.0,   12.4,   0.00,   0.00, 1023.6,   58.1, -999.0
07-08-2022, 00:24:32,    335,    0.0,   12.3,   0.00,   0.00, 1023.5,   58.0, -999.0
07-08-2022, 00:24:42,    335,    0.0,   12.3,   0.00,   0.00, 1023.5,   58.0, -999.0
07-08-2022, 00:24:52,    335,    0.0,   12.3,   0.00,   0.00, 1023.6,   57.8, -999.0
07-08-2022, 00:25:02,    335,    0.0,   12.4,   0.00,   0.00, 1023.6,   58.1, -999.0
07-08-2022, 00:25:12,    335,    0.0,   12.3,   0.00,   0.00, 1023.5,   57.9, -999.0
07-08-2022, 00:25:22,    335,    0.0,   12.3,   0.00,   0.00, 1023.5,   58.0, -999.0
07-08-2022, 00:25:32,    335,    0.0,   12.3,   0.00,   0.00, 1023.5,   58.0, -999.0
07-08-2022, 00:25:42,    335,    0.0,   12.2,   0.00,   0.00, 1023.5,   58.1, -999.0
07-08-2022, 00:25:52,    335,    0.0,   12.2,   0.00,   0.00, 1023.6,   58.3, -999.0
07-08-2022, 00:26:01,    335,    0.0,   12.3,   0.00,   0.00, 1023.5,   58.3, -999.0
07-08-2022, 00:26:12,    335,    0.0,   12.3,   0.00,   0.00, 1023.5,   58.4, -999.0
07-08-2022, 00:26:21,    335,    0.0,   12.3,   0.00,   0.00, 1023.5,   58.5, -999.0
07-08-2022, 00:26:31,    335,    0.0,   12.4,   0.00,   0.00, 1023.5,   58.4, -999.0
07-08-2022, 00:26:41,    335,    0.0,   12.3,   0.00,   0.00, 1023.6,   58.5, -999.0
07-08-2022, 00:26:51,    335,    0.0,   12.3,   0.00,   0.00, 1023.5,   58.5, -999.0
07-08-2022, 00:27:01,    335,    0.0,   12.3,   0.00,   0.00, 1023.6,   58.5, -999.0
07-08-2022, 00:27:11,    335,    0.0,   12.3,   0.00,   0.00, 1023.5,   58.5, -999.0
07-08-2022, 00:27:21,    335,    0.0,   12.3,   0.00,   0.00, 1023.5,   58.6, -999.0
07-08-2022, 00:27:31,    335,    0.0,   12.3,   0.00,   0.00, 1023.5,   58.7, -999.0
07-08-2022, 00:27:41,    335,    0.0,   12.4,   0.00,   0.00, 1023.5,   58.7, -999.0
07-08-2022, 00:27:51,    335,    0.0,   12.4,   0.00,   0.00, 1023.6,   58.7, -999.0
07-08-2022, 00:28:01,    336,    0.0,   12.5,   0.00,   0.00, 1023.5,   58.8, -999.0
07-08-2022, 00:28:11,    335,    0.0,   12.5,   0.00,   0.00, 1023.5,   58.7, -999.0
07-08-2022, 00:28:21,    335,    0.0,   12.5,   0.00,   0.00, 1023.6,   58.6, -999.0
07-08-2022, 00:28:30,    335,    0.0,   12.5,   0.00,   0.00, 1023.6,   58.6, -999.0
07-08-2022, 00:28:41,    335,    0.0,   12.5,   0.00,   0.00, 1023.6,   58.6, -999.0
07-08-2022, 00:28:51,    335,    0.0,   12.4,   0.00,   0.00, 1023.6,   58.7, -999.0
07-08-2022, 00:29:00,    335,    0.0,   12.5,   0.00,   0.00, 1023.5,   58.6, -999.0
07-08-2022, 00:29:10,    335,    0.0,   12.4,   0.00,   0.00, 1023.5,   58.6, -999.0
07-08-2022, 00:29:21,    335,    0.0,   12.4,   0.00,   0.00, 1023.5,   58.8, -999.0
07-08-2022, 00:29:30,    335,    0.0,   12.4,   0.00,   0.00, 1023.6,   58.9, -999.0
07-08-2022, 00:29:40,    335,    0.0,   12.4,   0.00,   0.00, 1023.5,   58.9, -999.0
07-08-2022, 00:29:50,    335,    0.0,   12.4,   0.00,   0.00, 1023.5,   58.9, -999.0
07-08-2022, 00:30:00,    335,    0.0,   12.5,   0.00,   0.00, 1023.6,   58.8, -999.0
07-08-2022, 00:30:10,    336,    0.0,   12.4,   0.00,   0.00, 1023.5,   58.9, -999.0
07-08-2022, 00:30:20,    335,    0.0,   12.5,   0.00,   0.00, 1023.5,   58.8, -999.0
07-08-2022, 00:30:30,    335,    0.0,   12.4,   0.00,   0.00, 1023.5,   58.8, -999.0
07-08-2022, 00:30:40,    335,    0.0,   12.4,   0.00,   0.00, 1023.6,   58.8, -999.0
07-08-2022, 00:30:50,    335,    0.0,   12.4,   0.00,   0.00, 1023.5,   58.7, -999.0
07-08-2022, 00:31:00,    335,    0.0,   12.4,   0.00,   0.00, 1023.6,   58.6, -999.0
07-08-2022, 00:31:10,    335,    0.0,   12.5,   0.00,   0.00, 1023.5,   58.7, -999.0
07-08-2022, 00:31:20,    335,    0.0,   12.5,   0.00,   0.00, 1023.5,   58.6, -999.0
07-08-2022, 00:31:30,    335,    0.0,   12.5,   0.00,   0.00, 1023.6,   58.6, -999.0
07-08-2022, 00:31:40,    335,    0.0,   12.5,   0.00,   0.00, 1023.5,   58.6, -999.0
07-08-2022, 00:31:50,    336,    0.0,   12.4,   0.00,   0.00, 1023.5,   58.8, -999.0
07-08-2022, 00:31:59,    335,    0.0,   12.5,   0.00,   0.00, 1023.5,   58.8, -999.0
07-08-2022, 00:32:09,    335,    0.0,   12.5,   0.00,   0.00, 1023.5,   58.8, -999.0
07-08-2022, 00:32:20,    335,    0.0,   12.4,   0.00,   0.00, 1023.5,   58.7, -999.0
07-08-2022, 00:32:29,    335,    0.0,   12.4,   0.00,   0.00, 1023.5,   58.7, -999.0
07-08-2022, 00:32:39,    335,    0.0,   12.4,   0.00,   0.00, 1023.6,   58.8, -999.0
07-08-2022, 00:32:49,    335,    0.0,   12.5,   0.00,   0.00, 1023.6,   58.8, -999.0
07-08-2022, 00:32:59,    335,    0.0,   12.4,   0.00,   0.00, 1023.6,   58.8, -999.0
07-08-2022, 00:33:09,    335,    0.0,   12.4,   0.00,   0.00, 1023.6,   59.0, -999.0
07-08-2022, 00:33:19,    336,    0.0,   12.4,   0.00,   0.00, 1023.6,   58.8, -999.0
07-08-2022, 00:33:29,    335,    0.0,   12.4,   0.00,   0.00, 1023.6,   58.9, -999.0
07-08-2022, 00:33:39,    335,    0.0,   12.4,   0.00,   0.00, 1023.6,   59.0, -999.0
07-08-2022, 00:33:49,    335,    0.0,   12.4,   0.00,   0.00, 1023.6,   59.0, -999.0
07-08-2022, 00:33:59,    335,    0.0,   12.4,   0.00,   0.00, 1023.6,   58.9, -999.0
07-08-2022, 00:34:09,    335,    0.0,   12.4,   0.00,   0.00, 1023.6,   58.9, -999.0
07-08-2022, 00:34:19,    335,    0.0,   12.4,   0.00,   0.00, 1023.6,   59.0, -999.0
07-08-2022, 00:34:29,    335,    0.0,   12.4,   0.00,   0.00, 1023.6,   58.9, -999.0
07-08-2022, 00:34:38,    335,    0.0,   12.4,   0.00,   0.00, 1023.6,   58.8, -999.0
07-08-2022, 00:34:49,    333,    0.0,   12.4,   0.00,   0.00, 1023.6,   59.0, -999.0
07-08-2022, 00:34:59,    335,    0.0,   12.4,   0.00,   0.00, 1023.6,   58.9, -999.0
07-08-2022, 00:35:08,    335,    0.0,   12.4,   0.00,   0.00, 1023.6,   59.0, -999.0
07-08-2022, 00:35:18,    335,    0.0,   12.4,   0.00,   0.00, 1023.6,   58.9, -999.0
07-08-2022, 00:35:28,    335,    0.0,   12.4,   0.00,   0.00, 1023.6,   59.1, -999.0
07-08-2022, 00:35:38,    335,    0.0,   12.4,   0.00,   0.00, 1023.6,   59.1, -999.0
07-08-2022, 00:35:48,    335,    0.0,   12.3,   0.00,   0.00, 1023.6,   59.0, -999.0
07-08-2022, 00:35:58,    335,    0.0,   12.4,   0.00,   0.00, 1023.6,   59.1, -999.0
07-08-2022, 00:36:08,    335,    0.0,   12.4,   0.00,   0.00, 1023.6,   59.1, -999.0
07-08-2022, 00:36:18,    335,    0.0,   12.3,   0.00,   0.00, 1023.6,   59.1, -999.0
07-08-2022, 00:36:28,    336,    0.0,   12.3,   0.00,   0.00, 1023.6,   59.1, -999.0
07-08-2022, 00:36:38,    335,    0.0,   12.3,   0.00,   0.00, 1023.6,   59.1, -999.0
07-08-2022, 00:36:48,    335,    0.0,   12.3,   0.00,   0.00, 1023.6,   59.2, -999.0
07-08-2022, 00:36:58,    335,    0.0,   12.3,   0.00,   0.00, 1023.6,   59.1, -999.0
07-08-2022, 00:37:08,    335,    0.0,   12.3,   0.00,   0.00, 1023.6,   59.3, -999.0
07-08-2022, 00:37:18,    335,    0.0,   12.3,   0.00,   0.00, 1023.6,   59.1, -999.0
07-08-2022, 00:37:28,    335,    0.0,   12.3,   0.00,   0.00, 1023.6,   59.2, -999.0
07-08-2022, 00:37:38,    337,    0.0,   12.4,   0.00,   0.00, 1023.6,   59.3, -999.0
07-08-2022, 00:37:47,    335,    0.0,   12.3,   0.00,   0.00, 1023.6,   59.2, -999.0
07-08-2022, 00:37:58,    335,    0.0,   12.2,   0.00,   0.00, 1023.6,   59.2, -999.0
07-08-2022, 00:38:07,    335,    0.0,   12.2,   0.00,   0.00, 1023.7,   59.3, -999.0
07-08-2022, 00:38:17,    335,    0.0,   12.3,   0.00,   0.00, 1023.6,   59.3, -999.0
07-08-2022, 00:38:28,    335,    0.0,   12.4,   0.00,   0.00, 1023.6,   59.3, -999.0
07-08-2022, 00:38:37,    335,    0.0,   12.4,   0.00,   0.00, 1023.6,   59.3, -999.0
07-08-2022, 00:38:47,    335,    0.0,   12.4,   0.00,   0.00, 1023.6,   59.4, -999.0
07-08-2022, 00:38:57,    335,    0.0,   12.4,   0.00,   0.00, 1023.6,   59.2, -999.0
07-08-2022, 00:39:07,    335,    0.0,   12.4,   0.00,   0.00, 1023.6,   59.1, -999.0
07-08-2022, 00:39:17,    335,    0.0,   12.4,   0.00,   0.00, 1023.6,   59.1, -999.0
07-08-2022, 00:39:27,    335,    0.0,   12.4,   0.00,   0.00, 1023.6,   59.0, -999.0
07-08-2022, 00:39:37,    335,    0.0,   12.4,   0.00,   0.00, 1023.7,   59.2, -999.0
07-08-2022, 00:39:47,    335,    0.0,   12.4,   0.00,   0.00, 1023.6,   59.2, -999.0
07-08-2022, 00:39:57,    335,    0.0,   12.4,   0.00,   0.00, 1023.6,   59.1, -999.0
07-08-2022, 00:40:07,    335,    0.0,   12.4,   0.00,   0.00, 1023.6,   59.2, -999.0
07-08-2022, 00:40:17,    335,    0.0,   12.4,   0.00,   0.00, 1023.6,   59.1, -999.0
07-08-2022, 00:40:27,    335,    0.0,   12.4,   0.00,   0.00, 1023.7,   59.2, -999.0
07-08-2022, 00:40:37,    335,    0.0,   12.4,   0.00,   0.00, 1023.6,   59.1, -999.0
07-08-2022, 00:40:46,    335,    0.0,   12.4,   0.00,   0.00, 1023.7,   59.1, -999.0
07-08-2022, 00:40:56,    335,    0.0,   12.4,   0.00,   0.00, 1023.7,   59.2, -999.0
07-08-2022, 00:41:07,    335,    0.0,   12.4,   0.00,   0.00, 1023.7,   59.2, -999.0
07-08-2022, 00:41:16,    333,    0.0,   12.4,   0.00,   0.00, 1023.7,   59.2, -999.0
07-08-2022, 00:41:26,    335,    0.0,   12.4,   0.00,   0.00, 1023.7,   59.1, -999.0
07-08-2022, 00:41:37,    335,    0.0,   12.4,   0.00,   0.00, 1023.7,   59.0, -999.0
07-08-2022, 00:41:46,    335,    0.0,   12.4,   0.00,   0.00, 1023.7,   59.1, -999.0
07-08-2022, 00:41:56,    335,    0.0,   12.3,   0.00,   0.00, 1023.7,   59.0, -999.0
07-08-2022, 00:42:06,    335,    0.0,   12.4,   0.00,   0.00, 1023.7,   59.0, -999.0
07-08-2022, 00:42:16,    335,    0.0,   12.3,   0.00,   0.00, 1023.7,   58.9, -999.0
07-08-2022, 00:42:26,    335,    0.0,   12.3,   0.00,   0.00, 1023.7,   59.1, -999.0
07-08-2022, 00:42:36,    335,    0.0,   12.3,   0.00,   0.00, 1023.7,   59.2, -999.0
07-08-2022, 00:42:46,    335,    0.0,   12.3,   0.00,   0.00, 1023.7,   59.0, -999.0
07-08-2022, 00:42:56,    336,    0.0,   12.3,   0.00,   0.00, 1023.7,   59.1, -999.0
07-08-2022, 00:43:06,    335,    0.0,   12.3,   0.00,   0.00, 1023.7,   59.1, -999.0
07-08-2022, 00:43:16,    335,    0.0,   12.3,   0.00,   0.00, 1023.7,   59.2, -999.0
07-08-2022, 00:43:25,    335,    0.0,   12.3,   0.00,   0.00, 1023.7,   59.2, -999.0
07-08-2022, 00:43:36,    336,    0.0,   12.3,   0.00,   0.00, 1023.7,   59.1, -999.0
07-08-2022, 00:43:46,    335,    0.0,   12.2,   0.00,   0.00, 1023.7,   59.2, -999.0
07-08-2022, 00:43:55,    335,    0.0,   12.2,   0.00,   0.00, 1023.7,   59.2, -999.0
07-08-2022, 00:44:05,    335,    0.0,   12.2,   0.00,   0.00, 1023.7,   59.2, -999.0
07-08-2022, 00:44:15,    335,    0.0,   12.1,   0.00,   0.00, 1023.7,   59.2, -999.0
07-08-2022, 00:44:25,    335,    0.0,   12.3,   0.00,   0.00, 1023.7,   59.1, -999.0
07-08-2022, 00:44:35,    335,    0.0,   12.1,   0.00,   0.00, 1023.7,   59.2, -999.0
07-08-2022, 00:44:45,    335,    0.0,   12.0,   0.00,   0.00, 1023.7,   59.2, -999.0
07-08-2022, 00:44:55,    335,    0.0,   12.1,   0.00,   0.00, 1023.7,   59.4, -999.0
07-08-2022, 00:45:05,    336,    0.0,   12.0,   0.00,   0.00, 1023.7,   59.4, -999.0
07-08-2022, 00:45:15,    335,    0.0,   11.9,   0.00,   0.00, 1023.7,   59.4, -999.0
07-08-2022, 00:45:25,    336,    0.0,   12.0,   0.00,   0.00, 1023.7,   59.5, -999.0
07-08-2022, 00:45:35,    335,    0.0,   11.9,   0.00,   0.00, 1023.7,   59.5, -999.0
07-08-2022, 00:45:45,    335,    0.0,   11.9,   0.00,   0.00, 1023.7,   59.6, -999.0
07-08-2022, 00:45:55,    335,    0.0,   12.0,   0.00,   0.00, 1023.7,   59.8, -999.0
07-08-2022, 00:46:05,    335,    0.0,   12.0,   0.00,   0.00, 1023.7,   59.9, -999.0
07-08-2022, 00:46:15,    335,    0.0,   11.9,   0.00,   0.00, 1023.7,   59.9, -999.0
07-08-2022, 00:46:25,    335,    0.0,   12.0,   0.00,   0.00, 1023.7,   59.8, -999.0
07-08-2022, 00:46:34,    335,    0.0,   12.0,   0.00,   0.00, 1023.7,   59.9, -999.0